COSMOS 2529 (757)

Last updated on Fri Feb 07 2025 00:03:12 GMT+0000 (Coordinated Universal Time)

1 43687U 18086A 25037.17431664 .00000103 00000+0 00000+0 0 9992 2 43687 64.2957 209.3507 0006810 258.0231 101.8996 2.13101923 48711
UTC large
Height (km)
Speed (km/s)
/
Latitude / Longitude
Inclination (degrees)
Orbital Period (minutes)
Azimuth
Elevation
Range (km)
Doppler Factor

Next 0 passes for location: London (51.5072 / 0.1276)

Sorry there are no passes over London.